RH
37 36 34 32 32 31 29 25 21 19 18 18 18 17 18 19 20 20 20 20 20 21 22 23 24 24 25 27 28 28 28 28 29 31 32 32 32 31 31 30 31 31 32 34 36 36 36 37 39 39 39 40 39 38 37 35 35 34 31 32 35 37 38 39 38 34 32 33 34 33 34 34 34 32 32 31 30 31 32 30 29 27 30 35 42
37 36 35 34 32 32 32 30 27 23 20 18 18 17 18 18 18 19 19 20 20 20 21 21 23 23 24 25 26 27 27 26 26 28 29 30 30 30 30 29 29 30 30 31 31 33 33 33 36 37 37 38 38 38 38 36 36 34 32 33 35 37 39 40 40 37 33 32 32 32 34 34 33 31 30 28 28 29 30 29 27 27 29 34 40
38 37 36 35 34 33 33 32 31 29 24 20 18 17 18 17 17 17 17 18 18 19 20 21 22 22 23 24 23 23 23 25 25 25 27 29 28 28 28 28 29 30 30 31 30 31 31 31 32 34 35 36 36 37 38 38 37 35 34 33 34 37 39 40 40 39 35 33 32 32 33 32 31 29 28 27 26 27 28 28 27 26 28 33 39
40 38 36 36 36 35 33 32 32 32 29 25 21 18 17 17 17 17 16 16 16 17 18 19 20 20 20 21 21 20 21 22 23 24 25 27 27 27 27 28 28 29 30 32 31 30 30 30 30 32 33 34 34 35 35 36 36 35 33 34 35 36 38 39 39 38 36 34 32 32 32 30 29 28 27 26 26 26 26 27 26 25 26 30 36
43 41 39 38 37 35 34 32 32 31 30 29 25 21 19 18 17 17 17 17 16 16 16 17 18 18 17 17 17 17 18 19 21 22 22 24 26 26 26 26 27 28 29 30 31 30 30 29 29 30 31 32 33 33 33 33 33 32 31 31 33 34 35 36 35 34 34 33 31 31 30 30 29 28 27 26 25 26 25 26 26 25 25 28 32
46 44 42 40 37 36 35 34 32 31 31 30 29 26 23 20 18 17 16 16 16 16 17 17 17 18 17 16 16 15 16 17 19 20 20 21 23 24 25 26 26 26 27 28 28 28 27 27 28 29 30 30 30 32 33 33 33 32 30 29 30 31 32 31 31 31 30 31 30 30 30 30 30 29 28 27 26 26 26 26 26 25 25 27 31
49 47 45 43 40 37 36 35 34 33 33 32 31 30 28 25 22 19 17 16 16 16 16 16 17 17 17 17 17 16 16 16 17 18 19 20 20 21 23 24 25 25 25 25 25 24 24 25 26 27 28 29 29 29 31 32 32 32 31 30 29 30 29 29 29 29 29 29 30 30 30 31 30 29 28 27 26 27 28 27 25 25 24 26 30
52 50 48 45 42 40 38 38 36 35 35 34 33 32 30 28 25 23 20 17 15 15 15 15 15 16 16 16 17 17 17 16 16 17 18 19 20 20 20 21 22 23 23 23 22 21 20 21 22 24 25 27 27 28 29 30 31 32 31 30 29 28 29 29 29 28 29 29 29 29 30 30 30 30 29 28 28 29 31 30 28 26 24 25 29
54 52 51 48 46 44 43 42 40 38 37 35 34 33 32 31 29 27 23 20 16 14 14 14 14 15 15 15 15 16 16 16 16 15 16 17 18 19 19 19 19 20 21 21 20 19 18 18 19 20 22 23 25 25 26 27 28 29 30 30 29 28 27 27 28 28 29 28 27 27 28 28 30 30 30 30 31 31 32 33 32 29 26 26 30
58 54 51 50 49 49 49 47 44 42 39 37 35 34 33 32 31 30 27 24 21 18 16 14 14 14 14 14 14 14 15 14 14 15 15 16 16 17 18 17 17 17 18 19 19 18 17 17 17 18 18 19 20 21 22 23 24 25 26 27 28 28 27 26 26 27 27 27 26 27 27 27 28 30 31 32 33 34 35 36 35 32 29 28 31
62 58 53 51 51 52 51 49 48 46 43 40 38 37 35 34 33 31 30 29 27 25 22 19 16 14 14 13 13 13 13 13 13 14 14 15 15 16 16 16 16 15 16 16 17 18 18 18 18 18 18 17 17 18 19 20 20 21 22 23 24 25 26 25 25 25 25 25 25 26 26 26 28 30 32 33 34 36 37 38 37 35 32 30 32
62 60 57 53 52 52 52 51 49 47 45 43 40 39 38 37 35 34 32 31 30 29 28 26 22 20 17 15 15 14 14 14 14 14 14 14 15 15 16 16 15 15 14 15 16 17 18 18 18 18 18 18 18 17 18 18 19 19 20 20 21 22 23 23 23 23 24 24 24 25 26 27 29 30 32 34 35 36 37 38 39 38 35 33 34
58 58 57 54 50 48 47 48 48 47 46 45 43 43 42 40 37 35 34 33 33 33 32 30 29 26 24 21 18 17 16 16 16 16 15 15 15 16 16 16 16 15 14 14 15 16 17 18 18 19 19 19 18 18 17 17 18 19 19 20 20 21 21 21 21 21 22 22 23 23 25 28 29 29 31 35 36 35 36 36 37 38 36 34 35
59 57 58 57 52 46 42 40 39 40 42 44 45 45 43 41 38 37 36 35 35 34 33 32 31 30 29 26 24 21 19 17 17 17 17 17 17 17 17 17 17 16 15 14 14 15 15 17 17 18 19 19 19 19 18 18 18 19 19 19 19 20 21 21 21 21 21 20 20 20 21 24 27 28 30 33 33 33 33 33 34 35 33 32 33
66 62 59 58 56 52 49 46 41 38 38 40 42 43 42 41 40 39 38 37 36 35 35 35 33 32 31 30 29 27 23 19 18 17 17 17 18 18 19 19 18 18 17 15 14 14 14 14 15 16 17 18 19 20 20 19 19 19 19 19 19 19 19 20 20 21 22 21 20 19 19 20 22 24 27 29 29 29 30 31 32 32 31 29 31
76 71 65 61 56 54 54 53 51 48 44 39 38 39 40 40 40 40 40 40 39 38 36 36 35 34 34 33 32 30 26 22 20 19 17 17 18 19 20 20 19 19 18 17 16 15 14 14 14 15 16 17 19 20 21 22 21 20 19 18 18 18 18 17 17 19 21 21 22 21 20 20 20 21 23 24 25 26 29 30 30 30 29 28 29
83 81 75 70 64 59 56 56 55 56 52 46 40 38 38 40 41 43 44 43 42 40 37 36 36 35 35 35 35 32 27 23 21 20 19 19 20 21 20 19 19 19 18 17 17 16 16 15 15 15 16 16 18 19 21 22 22 21 20 18 17 17 16 16 16 17 18 19 21 21 21 21 21 20 21 22 23 25 27 28 28 28 27 27 28
82 83 82 80 75 68 62 59 58 57 55 51 45 41 39 40 42 43 44 45 43 41 39 37 37 36 36 35 35 33 30 27 24 22 20 21 22 22 21 20 20 19 18 18 18 17 17 16 16 17 16 16 18 20 22 22 22 21 20 19 18 15 13 14 15 16 17 18 18 20 21 21 22 22 23 23 23 24 25 26 27 28 27 26 29
78 80 83 83 81 75 69 65 62 60 58 55 49 45 43 42 43 44 44 44 44 42 41 39 37 36 35 34 33 32 31 29 28 25 21 21 23 23 22 22 22 20 19 18 18 18 17 17 17 17 16 17 19 21 22 23 22 21 21 20 17 13 12 13 14 15 17 17 17 19 20 22 24 25 25 25 26 25 25 25 26 27 27 27 30
78 80 84 86 84 79 75 72 69 65 62 59 54 50 47 45 45 46 46 45 45 44 42 40 38 35 34 33 32 31 30 29 29 28 25 24 24 25 25 24 23 21 20 19 19 20 19 18 18 17 17 17 19 21 23 23 23 22 22 20 16 12 11 12 13 14 16 16 17 19 21 23 25 26 27 27 28 29 29 27 27 27 27 28 31
75 79 85 86 84 81 79 78 75 70 66 65 62 58 55 52 50 51 51 51 51 47 43 41 39 36 35 34 32 31 29 28 28 28 28 28 27 27 27 25 23 22 21 21 21 21 21 20 20 19 18 18 19 21 23 24 24 24 23 20 15 13 13 13 13 14 16 17 18 19 20 22 24 26 27 27 28 30 31 30 29 28 27 29 31
65 71 80 83 82 82 83 83 79 74 70 68 66 63 61 59 59 57 54 54 53 49 44 42 41 38 35 34 32 30 29 28 28 28 29 29 30 30 28 25 24 23 23 22 21 21 21 21 21 20 19 18 19 21 23 25 25 24 23 21 18 16 16 16 16 17 18 19 20 22 23 24 25 26 27 27 28 30 32 32 31 30 28 28 31
66 70 77 79 76 77 82 83 81 78 76 73 70 66 65 65 66 63 57 53 52 49 45 42 40 38 36 34 32 30 29 28 28 28 28 29 30 30 29 27 26 25 24 21 20 20 20 21 21 22 21 20 20 21 23 24 24 23 22 22 22 21 21 20 20 20 20 21 23 25 25 26 27 27 28 28 29 30 32 33 32 32 30 30 31
70 73 75 75 74 76 80 81 78 76 77 78 76 72 69 68 68 67 63 58 54 50 45 42 40 38 36 34 32 30 29 29 28 28 28 29 30 29 29 28 28 26 24 21 20 20 20 21 22 23 22 22 21 22 23 23 24 23 24 24 25 25 24 23 23 23 23 23 24 26 27 28 29 29 29 29 29 30 32 32 33 33 32 33 34
64 70 71 70 71 75 81 82 78 73 73 74 75 75 73 69 67 69 70 67 60 53 48 45 43 39 36 34 32 31 31 30 29 28 28 29 30 30 29 29 29 28 26 23 22 21 21 22 23 24 24 23 23 23 24 24 24 24 24 25 26 26 26 25 25 26 25 25 25 26 28 29 30 29 29 30 32 33 33 32 33 35 35 36 36
59 63 65 64 62 65 71 77 77 74 70 68 69 72 72 68 65 68 73 74 68 59 51 48 45 41 38 36 33 33 34 34 33 32 32 32 32 33 33 34 34 34 32 30 28 27 26 26 26 25 25 25 25 25 24 24 24 25 25 26 26 27 26 26 25 25 25 25 25 26 28 30 31 30 30 31 32 33 33 34 36 37 37 37 38
59 59 58 57 55 55 61 66 68 68 66 65 65 69 71 70 70 74 77 77 73 66 57 51 47 43 40 37 36 38 39 38 36 36 36 36 37 38 39 41 41 40 39 37 35 35 34 33 32 29 28 28 27 26 26 26 26 26 26 27 27 27 26 25 24 24 24 24 24 24 27 31 33 32 32 32 32 33 34 35 37 38 39 40 40
60 57 56 56 53 50 52 56 60 61 62 63 66 69 72 73 75 77 78 75 73 69 62 55 50 45 40 39 40 42 42 39 38 38 39 39 40 41 42 43 44 43 42 41 40 40 40 39 36 33 31 29 27 27 26 27 27 27 28 27 27 26 25 24 24 23 23 23 23 24 26 29 32 33 33 33 33 33 35 37 38 40 41 41 40
61 59 57 57 55 50 47 49 53 57 59 59 60 63 67 69 70 69 69 69 69 67 62 56 52 47 44 42 42 42 41 40 39 41 44 44 45 45 46 46 48 48 47 47 46 46 44 41 39 36 34 31 29 28 27 28 28 28 28 28 28 27 26 25 24 23 23 23 23 24 26 28 29 31 33 34 34 33 34 37 39 40 41 40 40
60 60 58 57 57 54 51 49 50 55 60 60 57 59 63 66 67 66 65 66 67 65 61 57 54 52 49 46 45 44 43 43 45 47 49 50 50 51 51 52 52 53 54 54 53 52 50 46 42 39 37 35 32 30 29 29 30 29 28 29 29 29 28 27 25 24 23 23 23 24 25 26 28 32 37 39 39 38 39 40 42 44 47 47 46
59 58 58 59 57 54 54 54 53 56 61 62 61 60 60 61 63 64 65 66 65 65 61 57 56 57 54 51 50 49 48 49 51 52 52 53 54 55 56 56 57 59 59 59 58 56 55 52 48 44 41 38 36 33 32 31 31 29 29 29 29 29 28 26 24 23 23 22 22 23 25 29 35 41 46 50 50 49 50 52 53 54 55 56 56
58 57 59 60 56 52 54 57 56 55 57 60 61 62 61 59 58 60 63 65 66 64 61 56 55 57 57 55 53 52 51 52 54 55 56 57 56 56 57 59 61 62 62 61 59 57 57 56 54 51 46 42 38 36 34 32 32 31 29 28 27 26 25 22 21 22 23 23 24 25 30 38 45 49 54 59 57 54 55 59 62 63 63 63 65
56 56 57 59 57 54 57 59 57 54 55 58 61 61 60 59 57 57 58 61 63 63 60 56 55 57 57 55 54 53 52 54 56 57 59 59 60 60 62 63 64 63 62 61 59 58 58 58 58 56 52 46 42 39 36 34 33 32 29 26 25 24 23 24 26 27 27 28 30 33 39 46 51 53 57 61 61 58 58 62 67 70 71 70 70
53 54 56 58 58 58 59 60 57 54 54 59 61 60 59 58 58 58 57 58 60 60 59 57 57 57 55 53 53 52 51 52 55 57 59 61 64 67 68 67 64 62 61 60 59 59 59 59 59 58 55 52 47 43 38 35 33 32 29 25 23 23 25 27 31 33 34 35 38 41 45 50 53 56 59 63 64 63 64 66 68 70 71 70 71
49 50 52 54 57 59 60 61 59 54 52 56 60 61 59 58 58 58 57 56 56 57 57 56 55 54 54 53 52 51 50 52 54 56 59 63 66 69 69 66 63 60 59 57 57 58 59 60 60 57 57 56 52 46 41 36 33 32 30 26 22 24 26 29 33 38 41 41 42 44 48 51 55 59 62 64 65 66 66 66 66 67 68 70 70
49 46 46 50 55 58 60 62 62 57 52 52 57 59 59 58 58 57 55 54 54 54 53 52 51 51 52 52 51 50 50 50 52 55 59 62 65 65 65 64 62 60 58 55 54 55 58 59 58 56 56 56 54 51 45 38 33 32 31 27 25 27 29 31 35 41 44 44 45 48 50 54 58 62 64 66 66 66 65 64 64 66 68 69 70
52 50 48 51 56 58 58 61 64 60 54 51 53 56 56 56 56 57 55 52 51 51 51 49 49 48 47 46 47 48 47 47 48 50 53 56 59 61 62 62 61 60 56 54 54 55 57 56 54 53 53 54 55 54 49 42 36 33 32 29 27 28 31 35 39 43 46 48 48 49 51 55 60 64 65 67 67 65 64 65 67 70 72 72 72
49 53 52 53 55 57 58 61 62 60 55 51 51 54 57 57 56 55 54 52 49 49 51 51 51 48 46 44 45 47 48 48 47 47 47 50 54 57 60 61 60 57 54 52 53 55 55 53 51 52 52 52 55 56 53 45 39 35 33 32 29 27 30 36 40 45 49 52 52 53 54 58 63 67 68 68 66 62 63 66 69 73 76 76 75
44 49 50 50 53 55 57 60 61 58 54 50 49 51 57 60 58 55 54 53 50 48 49 52 52 49 46 45 46 48 49 50 50 50 50 50 52 53 55 56 56 55 53 52 51 51 51 50 50 51 52 52 54 56 54 48 42 37 35 34 32 28 29 35 40 46 51 54 57 60 61 62 67 72 72 70 66 62 64 68 72 76 78 76 75
43 45 46 47 49 51 53 56 58 57 54 51 48 48 53 60 62 59 56 56 53 49 48 50 50 50 48 47 49 50 52 54 55 57 56 54 52 50 49 49 49 50 51 50 50 49 50 51 51 51 51 51 54 56 53 49 45 41 38 37 35 33 35 39 45 50 55 57 62 66 67 68 71 73 72 70 68 66 67 70 74 78 79 76 75
43 44 44 44 45 46 49 51 54 55 53 51 47 45 48 56 61 59 56 54 52 50 48 47 47 50 52 52 52 53 56 58 58 58 58 56 54 52 50 49 49 49 50 50 50 51 53 54 55 55 55 55 57 56 53 50 47 44 42 40 39 39 42 47 50 54 59 64 68 70 69 71 73 71 70 71 71 71 71 73 76 77 76 74 74
43 43 43 43 43 43 44 46 48 51 52 50 45 42 44 50 55 55 52 48 47 46 47 47 48 50 54 56 55 55 58 60 59 59 59 59 60 60 59 57 55 53 53 55 57 59 60 60 59 59 60 62 62 59 54 50 50 49 48 46 46 48 52 56 60 64 69 72 74 73 73 74 72 70 71 73 73 72 74 77 78 76 73 70 71
42 42 42 42 41 41 42 42 43 47 51 51 47 42 42 45 49 51 50 47 44 43 43 46 48 49 52 55 56 56 57 60 61 61 61 61 62 63 64 62 60 58 58 59 61 63 65 65 64 63 64 66 66 62 57 53 55 58 59 55 54 57 62 66 69 72 75 76 76 76 76 75 72 70 72 75 77 76 75 76 75 72 69 69 70
44 45 46 45 43 40 40 41 41 45 52 55 52 48 45 45 45 47 47 46 45 43 42 43 44 44 44 45 47 49 51 54 58 61 62 62 63 64 65 62 59 56 57 59 60 62 64 67 67 67 68 67 65 62 60 60 63 68 69 66 63 65 68 71 74 74 74 76 78 77 75 74 74 73 74 74 74 75 74 73 71 69 67 68 69
49 50 51 50 47 45 43 42 41 44 52 56 55 52 50 48 45 44 43 43 44 43 42 40 39 38 37 37 37 39 41 42 45 50 54 57 57 57 56 56 55 54 55 58 61 63 65 69 70 69 68 65 62 61 63 65 68 72 75 76 73 70 70 73 77 78 77 79 80 77 74 73 74 74 73 72 72 73 72 71 69 67 67 68 69
53 54 54 54 53 51 50 48 46 46 49 53 53 51 51 51 47 43 41 42 43 41 40 38 36 34 33 34 34 34 34 34 36 39 44 49 51 52 52 55 59 62 63 64 66 65 64 66 69 67 62 58 59 63 66 68 70 73 76 79 79 76 74 77 81 83 84 86 84 80 78 77 76 77 78 76 74 71 69 68 68 67 67 69 70
54 55 55 56 56 55 53 53 53 51 49 49 50 49 49 50 49 44 41 42 44 43 40 39 37 35 34 34 34 33 33 34 35 37 40 45 51 56 59 62 66 69 69 69 71 70 66 64 65 65 61 58 60 64 67 69 73 76 79 82 84 83 81 82 83 85 88 89 87 84 83 82 82 83 81 75 69 67 67 68 69 70 71 75 78
53 54 55 57 57 55 53 53 56 56 53 50 50 50 49 48 48 46 43 42 44 44 43 41 40 40 39 37 36 35 34 34 37 41 44 47 52 58 62 65 68 72 74 75 75 75 73 70 69 69 67 64 64 66 69 73 77 80 82 84 84 81 79 80 82 84 87 87 85 84 84 82 80 78 75 69 67 69 72 72 73 75 79 84 86
53 53 54 56 57 56 53 52 54 57 56 53 51 51 51 48 48 48 46 44 44 45 45 44 44 43 43 42 40 38 38 39 43 47 49 52 55 59 62 65 67 71 76 78 78 77 77 76 77 77 76 72 69 70 74 77 78 79 82 83 82 79 78 77 77 78 80 81 80 81 82 80 76 73 71 69 71 76 79 80 82 85 88 89 88
54 53 52 53 54 54 54 53 52 53 55 54 53 53 53 51 48 47 47 46 45 45 46 47 48 48 48 47 46 44 44 48 53 56 56 58 59 60 62 65 67 69 73 77 79 78 79 81 83 83 82 78 74 75 79 83 83 82 82 82 81 80 80 77 72 71 75 77 79 81 83 81 78 77 77 77 80 84 86 87 88 89 91 91 89
57 55 54 53 53 53 54 53 51 51 51 51 51 52 54 54 52 50 49 50 50 50 50 52 54 54 53 53 52 50 50 54 59 61 61 61 60 59 59 61 62 63 66 71 76 79 82 85 86 87 87 86 82 80 81 85 87 86 85 83 82 81 81 78 73 71 73 77 80 84 85 83 81 81 82 82 83 84 86 88 89 90 91 90 88